Regional Weather Roundup
Issued by NWS Goodland, KS

Home | Current Version | Previous Version | Text Only | Print | Product List | Glossary On
Versions: 1 2 3 4 5 6 7 8 9 10 11 12 13 14 15 16 17 18 19 20 21 22 23 24 25 26 27 28 29 30 31 32 33 34 35 36 37 38 39 40 41 42 43 44 45 46 47 48 49 50
000
ASUS43 KGLD 291908
RWRGLD

GOODLAND FORECAST AREA HOURLY WEATHER ROUNDUP
NATIONAL WEATHER SERVICE GOODLAND KS
1200 PM MST THU JAN 29 2015

...OFFICIAL OBSERVATIONS...

CITY           SKY/WX    TMP DP  RH WIND       PRES   REMARKS
GOODLAND KS    SUNNY     43  25  49 N16G23    30.49F
HILL CITY KS   SUNNY     44  24  45 NW18G25   30.50F
IMPERIAL NEB   SUNNY     41  25  53 NW10      30.49F
MCCOOK NEB     SUNNY     44  23  43 NW18      30.49F
AKRON CO       MOSUNNY   44  19  36 NW12      30.48F
BURLINGTON CO  SUNNY     46  20  35 N14       30.48F
LIMON CO       CLOUDY    44  17  33 N9        30.49F
$$

...UNOFFICIAL OBSERVATIONS...

CITY           SKY/WX    TMP DP  RH WIND       PRES   REMARKS
COLBY KS       SUNNY     43  28  56 NW17G23   30.50F
GOVE KS          N/A     43  32  65 MISG        N/A
NORTON KS      SUNNY     45  21  39 NW13      30.47F
SHARON SPRINGS   N/A     45  27  48 NE12G20     N/A
KIT CARSON CO    N/A     48  20  33 MISG        N/A
YUMA CO          N/A     45  12  26 N14         N/A
$$



USA.gov is the U.S. government's official web portal to all federal, state and local government web resources and services.